Time,TemperatureF,DewpointF,PressureIn,WindDirection,WindDirectionDegrees,WindSpeedMPH,WindSpeedGustMPH,Humidity,HourlyPrecipIn,Conditions,Clouds,dailyrainin,SoftwareType,DateUTC
2013-07-29 00:02:00,65.9,50.2,30.05,ESE,104,0.0,2.0,57,0.00,,,0.00,WUHU216DAVISVP2,2013-07-29 05:02:00,
2013-07-29 00:07:00,65.6,50.1,30.05,East,91,1.0,2.0,57,0.00,,,0.00,WUHU216DAVISVP2,2013-07-29 05:07:00,
2013-07-29 00:12:00,65.6,50.1,30.04,SSE,156,0.0,2.0,57,0.00,,,0.00,WUHU216DAVISVP2,2013-07-29 05:12:00,
2013-07-29 00:17:00,65.3,50.3,30.05,SE,139,0.0,2.0,58,0.00,,,0.00,WUHU216DAVISVP2,2013-07-29 05:17:00,
2013-07-29 00:22:00,65.1,50.1,30.05,ESE,114,0.0,2.0,58,0.00,,,0.00,WUHU216DAVISVP2,2013-07-29 05:22:00,
2013-07-29 00:27:00,64.9,50.4,30.05,ESE,114,0.0,2.0,59,0.00,,,0.00,WUHU216DAVISVP2,2013-07-29 05:27:00,
2013-07-29 00:32:00,64.7,50.2,30.05,ESE,114,1.0,1.0,59,0.00,,,0.00,WUHU216DAVISVP2,2013-07-29 05:32:00,
2013-07-29 00:37:00,64.6,50.1,30.05,ENE,78,1.0,2.0,59,0.00,,,0.00,WUHU216DAVISVP2,2013-07-29 05:37:00,
2013-07-29 00:42:00,64.6,50.5,30.05,ENE,77,0.0,2.0,60,0.00,,,0.00,WUHU216DAVISVP2,2013-07-29 05:42:00,
2013-07-29 00:47:00,64.3,50.3,30.05,East,101,0.0,2.0,60,0.00,,,0.00,WUHU216DAVISVP2,2013-07-29 05:47:00,
2013-07-29 00:52:00,64.2,50.2,30.05,ESE,103,0.0,2.0,60,0.00,,,0.00,WUHU216DAVISVP2,2013-07-29 05:52:00,
2013-07-29 00:57:00,64.1,50.5,30.05,ESE,103,0.0,2.0,61,0.00,,,0.00,WUHU216DAVISVP2,2013-07-29 05:57:00,
2013-07-29 01:02:00,64.0,50.4,30.05,SE,126,1.0,2.0,61,0.00,,,0.00,WUHU216DAVISVP2,2013-07-29 06:02:00,
2013-07-29 01:07:00,64.1,50.1,30.05,SE,127,0.0,2.0,60,0.00,,,0.00,WUHU216DAVISVP2,2013-07-29 06:07:00,
2013-07-29 01:12:00,64.0,50.4,30.05,ESE,121,0.0,2.0,61,0.00,,,0.00,WUHU216DAVISVP2,2013-07-29 06:12:00,
2013-07-29 01:17:00,63.8,50.2,30.05,ESE,121,0.0,1.0,61,0.00,,,0.00,WUHU216DAVISVP2,2013-07-29 06:17:00,
2013-07-29 01:22:00,63.7,50.0,30.05,ESE,121,0.0,1.0,61,0.00,,,0.00,WUHU216DAVISVP2,2013-07-29 06:22:00,
2013-07-29 01:27:00,63.7,50.0,30.05,SE,139,0.0,1.0,61,0.00,,,0.00,WUHU216DAVISVP2,2013-07-29 06:27:00,
2013-07-29 01:32:00,63.8,50.1,30.05,SE,143,1.0,1.0,61,0.00,,,0.00,WUHU216DAVISVP2,2013-07-29 06:32:00,
2013-07-29 01:37:00,63.7,49.7,30.05,SE,144,1.0,1.0,60,0.00,,,0.00,WUHU216DAVISVP2,2013-07-29 06:37:00,
2013-07-29 01:42:00,63.6,50.1,30.05,SE,144,0.0,1.0,61,0.00,,,0.00,WUHU216DAVISVP2,2013-07-29 06:42:00,
2013-07-29 01:47:00,63.4,49.9,30.05,SSE,154,0.0,1.0,61,0.00,,,0.00,WUHU216DAVISVP2,2013-07-29 06:47:00,
2013-07-29 01:52:00,63.3,49.8,30.05,SE,134,0.0,1.0,61,0.00,,,0.00,WUHU216DAVISVP2,2013-07-29 06:52:00,
2013-07-29 01:57:00,63.4,49.9,30.05,SSE,159,2.0,2.0,61,0.00,,,0.00,WUHU216DAVISVP2,2013-07-29 06:57:00,
2013-07-29 02:02:00,63.4,50.3,30.05,SSE,155,0.0,2.0,62,0.00,,,0.00,WUHU216DAVISVP2,2013-07-29 07:02:00,
2013-07-29 02:07:00,63.3,50.6,30.05,SE,133,1.0,2.0,63,0.00,,,0.00,WUHU216DAVISVP2,2013-07-29 07:07:00,
2013-07-29 02:12:00,63.3,50.5,30.05,SE,139,1.0,4.0,63,0.00,,,0.00,WUHU216DAVISVP2,2013-07-29 07:12:00,
2013-07-29 02:17:00,63.2,50.4,30.06,SE,145,0.0,4.0,63,0.00,,,0.00,WUHU216DAVISVP2,2013-07-29 07:17:00,
2013-07-29 02:22:00,63.1,50.7,30.06,SSE,150,2.0,4.0,64,0.00,,,0.00,WUHU216DAVISVP2,2013-07-29 07:22:00,
2013-07-29 02:27:00,62.9,50.7,30.06,ESE,116,0.0,4.0,64,0.00,,,0.00,WUHU216DAVISVP2,2013-07-29 07:27:00,
2013-07-29 02:32:00,62.8,51.0,30.06,SE,127,0.0,3.0,65,0.00,,,0.00,WUHU216DAVISVP2,2013-07-29 07:32:00,
2013-07-29 02:37:00,62.6,50.8,30.06,SE,134,1.0,3.0,65,0.00,,,0.00,WUHU216DAVISVP2,2013-07-29 07:37:00,
2013-07-29 02:42:00,62.7,50.9,30.06,SE,132,0.0,2.0,65,0.00,,,0.00,WUHU216DAVISVP2,2013-07-29 07:42:00,
2013-07-29 02:47:00,62.6,50.8,30.06,SE,133,0.0,2.0,65,0.00,,,0.00,WUHU216DAVISVP2,2013-07-29 07:47:00,
2013-07-29 02:52:00,62.4,51.0,30.06,ESE,108,0.0,2.0,66,0.00,,,0.00,WUHU216DAVISVP2,2013-07-29 07:52:00,
2013-07-29 02:57:00,62.2,50.7,30.05,ESE,109,0.0,2.0,66,0.00,,,0.00,WUHU216DAVISVP2,2013-07-29 07:57:00,
2013-07-29 03:02:00,62.1,51.0,30.05,SE,127,0.0,1.0,67,0.00,,,0.00,WUHU216DAVISVP2,2013-07-29 08:02:00,
2013-07-29 03:07:00,61.8,50.7,30.05,NE,40,0.0,0.0,67,0.00,,,0.00,WUHU216DAVISVP2,2013-07-29 08:07:00,
2013-07-29 03:12:00,61.6,51.1,30.05,NE,40,0.0,0.0,68,0.00,,,0.00,WUHU216DAVISVP2,2013-07-29 08:12:00,
2013-07-29 03:17:00,61.4,50.9,30.06,East,92,0.0,0.0,68,0.00,,,0.00,WUHU216DAVISVP2,2013-07-29 08:17:00,
2013-07-29 03:22:00,61.5,50.6,30.05,ENE,77,0.0,3.0,67,0.00,,,0.00,WUHU216DAVISVP2,2013-07-29 08:22:00,
2013-07-29 03:27:00,61.5,50.6,30.05,ENE,78,1.0,3.0,67,0.00,,,0.00,WUHU216DAVISVP2,2013-07-29 08:27:00,
2013-07-29 03:32:00,61.5,50.6,30.05,ENE,70,2.0,3.0,67,0.00,,,0.00,WUHU216DAVISVP2,2013-07-29 08:32:00,
2013-07-29 03:37:00,61.6,50.1,30.05,ENE,60,2.0,3.0,66,0.00,,,0.00,WUHU216DAVISVP2,2013-07-29 08:37:00,
2013-07-29 03:42:00,61.6,50.5,30.05,ENE,62,0.0,3.0,67,0.00,,,0.00,WUHU216DAVISVP2,2013-07-29 08:42:00,
2013-07-29 03:47:00,61.5,50.4,30.05,ENE,76,0.0,3.0,67,0.00,,,0.00,WUHU216DAVISVP2,2013-07-29 08:47:00,
2013-07-29 03:52:00,61.3,50.4,30.05,ENE,77,0.0,3.0,67,0.00,,,0.00,WUHU216DAVISVP2,2013-07-29 08:52:00,
2013-07-29 03:57:00,61.3,50.4,30.05,East,79,0.0,3.0,67,0.00,,,0.00,WUHU216DAVISVP2,2013-07-29 08:57:00,
2013-07-29 04:02:00,61.3,50.4,30.06,ENE,78,0.0,1.0,67,0.00,,,0.00,WUHU216DAVISVP2,2013-07-29 09:02:00,
2013-07-29 04:07:00,61.1,50.2,30.06,ENE,77,0.0,1.0,67,0.00,,,0.00,WUHU216DAVISVP2,2013-07-29 09:07:00,
2013-07-29 04:12:00,61.0,50.5,30.05,East,101,1.0,1.0,68,0.00,,,0.00,WUHU216DAVISVP2,2013-07-29 09:12:00,
2013-07-29 04:17:00,60.9,50.0,30.05,East,82,1.0,2.0,67,0.00,,,0.00,WUHU216DAVISVP2,2013-07-29 09:17:00,
2013-07-29 04:22:00,60.9,50.3,30.05,SE,136,0.0,2.0,68,0.00,,,0.00,WUHU216DAVISVP2,2013-07-29 09:22:00,
2013-07-29 04:27:00,60.8,50.2,30.05,ESE,112,0.0,2.0,68,0.00,,,0.00,WUHU216DAVISVP2,2013-07-29 09:27:00,
2013-07-29 04:32:00,60.7,50.2,30.05,ESE,121,0.0,2.0,68,0.00,,,0.00,WUHU216DAVISVP2,2013-07-29 09:32:00,
2013-07-29 04:37:00,60.7,50.6,30.05,SE,134,0.0,1.0,69,0.00,,,0.00,WUHU216DAVISVP2,2013-07-29 09:37:00,
2013-07-29 04:42:00,60.7,50.6,30.05,SE,131,0.0,1.0,69,0.00,,,0.00,WUHU216DAVISVP2,2013-07-29 09:42:00,
2013-07-29 04:47:00,60.7,50.6,30.05,ESE,117,0.0,1.0,69,0.00,,,0.00,WUHU216DAVISVP2,2013-07-29 09:47:00,
2013-07-29 04:52:00,60.8,50.7,30.05,ESE,122,0.0,1.0,69,0.00,,,0.00,WUHU216DAVISVP2,2013-07-29 09:52:00,
2013-07-29 04:57:00,61.1,51.0,30.04,SE,136,0.0,1.0,69,0.00,,,0.00,WUHU216DAVISVP2,2013-07-29 09:57:00,
2013-07-29 05:02:00,61.3,50.8,30.04,SE,130,0.0,3.0,68,0.00,,,0.00,WUHU216DAVISVP2,2013-07-29 10:02:00,
2013-07-29 05:07:00,61.4,50.9,30.05,East,98,0.0,3.0,68,0.00,,,0.00,WUHU216DAVISVP2,2013-07-29 10:07:00,
2013-07-29 05:12:00,61.6,50.7,30.05,SE,133,1.0,3.0,67,0.00,,,0.00,WUHU216DAVISVP2,2013-07-29 10:12:00,
2013-07-29 05:17:00,61.7,50.6,30.05,SE,133,1.0,3.0,67,0.00,,,0.00,WUHU216DAVISVP2,2013-07-29 10:17:00,
2013-07-29 05:23:00,61.8,51.1,30.05,SE,132,0.0,4.0,68,0.00,,,0.00,WUHU216DAVISVP2,2013-07-29 10:23:00,
2013-07-29 05:28:00,61.9,51.2,30.05,ESE,118,0.0,4.0,68,0.00,,,0.00,WUHU216DAVISVP2,2013-07-29 10:28:00,
2013-07-29 05:33:00,61.7,51.0,30.05,ENE,66,0.0,4.0,68,0.00,,,0.00,WUHU216DAVISVP2,2013-07-29 10:33:00,
2013-07-29 05:38:00,61.6,51.1,30.05,SSE,159,0.0,4.0,68,0.00,,,0.00,WUHU216DAVISVP2,2013-07-29 10:38:00,
2013-07-29 05:43:00,61.5,51.4,30.05,SE,124,0.0,3.0,69,0.00,,,0.00,WUHU216DAVISVP2,2013-07-29 10:43:00,
2013-07-29 05:49:00,61.6,51.1,30.05,ESE,115,1.0,3.0,68,0.00,,,0.00,WUHU216DAVISVP2,2013-07-29 10:49:00,
2013-07-29 05:54:00,61.6,51.1,30.05,South,170,0.0,5.0,68,0.00,,,0.00,WUHU216DAVISVP2,2013-07-29 10:54:00,
2013-07-29 05:59:00,61.6,51.1,30.05,SSE,159,2.0,5.0,68,0.00,,,0.00,WUHU216DAVISVP2,2013-07-29 10:59:00,
2013-07-29 06:04:00,61.6,50.7,30.05,SSW,196,2.0,5.0,67,0.00,,,0.00,WUHU216DAVISVP2,2013-07-29 11:04:00,
2013-07-29 06:09:00,61.8,50.9,30.05,SSE,156,4.0,5.0,67,0.00,,,0.00,WUHU216DAVISVP2,2013-07-29 11:09:00,
2013-07-29 06:14:00,61.8,50.9,30.05,West,259,3.0,6.0,67,0.00,,,0.00,WUHU216DAVISVP2,2013-07-29 11:14:00,
2013-07-29 06:19:00,62.1,50.8,30.05,SE,136,3.0,7.0,66,0.00,,,0.00,WUHU216DAVISVP2,2013-07-29 11:19:00,
2013-07-29 06:24:00,62.2,50.9,30.05,South,174,3.0,7.0,66,0.00,,,0.00,WUHU216DAVISVP2,2013-07-29 11:24:00,
2013-07-29 06:29:00,62.1,51.2,30.05,SE,144,4.0,7.0,67,0.00,,,0.00,WUHU216DAVISVP2,2013-07-29 11:29:00,
2013-07-29 06:34:00,62.1,51.2,30.05,SE,139,1.0,6.0,67,0.00,,,0.00,WUHU216DAVISVP2,2013-07-29 11:34:00,
2013-07-29 06:40:00,62.2,51.3,30.05,SSE,163,2.0,5.0,67,0.00,,,0.00,WUHU216DAVISVP2,2013-07-29 11:40:00,
2013-07-29 06:45:00,62.4,51.0,30.05,SE,128,0.0,5.0,66,0.00,,,0.00,WUHU216DAVISVP2,2013-07-29 11:45:00,
2013-07-29 06:50:00,62.4,51.3,30.05,SE,128,0.0,5.0,67,0.00,,,0.00,WUHU216DAVISVP2,2013-07-29 11:50:00,
2013-07-29 06:55:00,62.4,51.5,30.06,ESE,120,0.0,4.0,67,0.00,,,0.00,WUHU216DAVISVP2,2013-07-29 11:55:00,
2013-07-29 07:00:00,62.5,51.4,30.06,ENE,78,0.0,4.0,67,0.00,,,0.00,WUHU216DAVISVP2,2013-07-29 12:00:00,
2013-07-29 07:05:00,62.6,51.6,30.06,ESE,119,0.0,3.0,67,0.00,,,0.00,WUHU216DAVISVP2,2013-07-29 12:05:00,
2013-07-29 07:11:00,62.6,51.6,30.06,SSW,210,0.0,3.0,67,0.00,,,0.00,WUHU216DAVISVP2,2013-07-29 12:11:00,
2013-07-29 07:16:00,62.6,51.1,30.06,SE,145,3.0,3.0,66,0.00,,,0.00,WUHU216DAVISVP2,2013-07-29 12:16:00,
2013-07-29 07:21:00,62.6,51.2,30.06,ENE,68,0.0,5.0,66,0.00,,,0.00,WUHU216DAVISVP2,2013-07-29 12:21:00,
2013-07-29 07:26:00,62.6,51.2,30.06,SSE,159,0.0,5.0,66,0.00,,,0.00,WUHU216DAVISVP2,2013-07-29 12:26:00,
2013-07-29 07:31:00,62.6,51.1,30.07,SE,128,0.0,5.0,66,0.00,,,0.00,WUHU216DAVISVP2,2013-07-29 12:31:00,
2013-07-29 07:36:00,62.4,51.9,30.06,ESE,121,2.0,5.0,68,0.00,,,0.00,WUHU216DAVISVP2,2013-07-29 12:36:00,
2013-07-29 07:42:00,62.2,52.4,30.06,ESE,103,2.0,6.0,70,0.00,,,0.00,WUHU216DAVISVP2,2013-07-29 12:42:00,
2013-07-29 07:47:00,61.9,52.9,30.06,SSE,162,3.0,6.0,72,0.00,,,0.00,WUHU216DAVISVP2,2013-07-29 12:47:00,
2013-07-29 07:52:00,61.3,52.9,30.06,SSE,153,0.0,6.0,74,0.01,,,0.01,WUHU216DAVISVP2,2013-07-29 12:52:00,
2013-07-29 07:57:00,60.9,53.4,30.06,SSE,156,1.0,6.0,76,0.02,,,0.02,WUHU216DAVISVP2,2013-07-29 12:57:00,
2013-07-29 08:02:00,60.6,53.8,30.06,SE,133,0.0,4.0,78,0.02,,,0.02,WUHU216DAVISVP2,2013-07-29 13:02:00,
2013-07-29 08:07:00,60.3,54.2,30.06,ESE,103,0.0,2.0,80,0.03,,,0.03,WUHU216DAVISVP2,2013-07-29 13:07:00,
2013-07-29 08:12:00,60.0,54.2,30.06,SSE,163,0.0,2.0,81,0.04,,,0.04,WUHU216DAVISVP2,2013-07-29 13:12:00,
2013-07-29 08:17:00,59.8,54.3,30.06,NE,34,0.0,2.0,82,0.04,,,0.04,WUHU216DAVISVP2,2013-07-29 13:17:00,
2013-07-29 08:23:00,59.5,54.3,30.06,East,87,0.0,4.0,83,0.05,,,0.05,WUHU216DAVISVP2,2013-07-29 13:23:00,
2013-07-29 08:28:00,59.4,54.6,30.07,East,88,0.0,4.0,84,0.05,,,0.05,WUHU216DAVISVP2,2013-07-29 13:28:00,
2013-07-29 08:33:00,59.5,55.0,30.07,East,88,0.0,3.0,85,0.06,,,0.06,WUHU216DAVISVP2,2013-07-29 13:33:00,
2013-07-29 08:38:00,59.6,55.1,30.07,ENE,63,0.0,3.0,85,0.06,,,0.06,WUHU216DAVISVP2,2013-07-29 13:38:00,
2013-07-29 08:43:00,59.7,55.5,30.07,SE,131,0.0,1.0,86,0.06,,,0.06,WUHU216DAVISVP2,2013-07-29 13:43:00,
2013-07-29 08:48:00,59.9,56.0,30.07,SE,131,0.0,1.0,87,0.07,,,0.07,WUHU216DAVISVP2,2013-07-29 13:48:00,
2013-07-29 08:53:00,60.1,55.9,30.07,ENE,72,2.0,2.0,86,0.06,,,0.07,WUHU216DAVISVP2,2013-07-29 13:53:00,
2013-07-29 08:58:00,59.8,55.6,30.07,ENE,76,3.0,4.0,86,0.05,,,0.07,WUHU216DAVISVP2,2013-07-29 13:58:00,
2013-07-29 09:03:00,59.7,55.5,30.07,ESE,119,0.0,4.0,86,0.05,,,0.07,WUHU216DAVISVP2,2013-07-29 14:03:00,
2013-07-29 09:08:00,59.8,55.6,30.06,ENE,70,0.0,4.0,86,0.04,,,0.07,WUHU216DAVISVP2,2013-07-29 14:08:00,
2013-07-29 09:13:00,59.7,55.5,30.06,SE,127,1.0,4.0,86,0.03,,,0.07,WUHU216DAVISVP2,2013-07-29 14:13:00,
2013-07-29 09:18:00,59.6,56.0,30.07,East,85,0.0,4.0,88,0.03,,,0.07,WUHU216DAVISVP2,2013-07-29 14:18:00,
2013-07-29 09:23:00,59.9,56.3,30.07,SSE,147,0.0,4.0,88,0.02,,,0.07,WUHU216DAVISVP2,2013-07-29 14:23:00,
2013-07-29 09:28:00,60.0,56.1,30.07,SSW,204,1.0,3.0,87,0.02,,,0.08,WUHU216DAVISVP2,2013-07-29 14:28:00,
2013-07-29 09:33:00,60.0,56.1,30.06,SW,222,0.0,3.0,87,0.02,,,0.08,WUHU216DAVISVP2,2013-07-29 14:33:00,
2013-07-29 09:38:00,60.0,56.1,30.07,ESE,112,0.0,2.0,87,0.02,,,0.08,WUHU216DAVISVP2,2013-07-29 14:38:00,
2013-07-29 09:43:00,59.9,56.0,30.06,SE,124,0.0,3.0,87,0.02,,,0.08,WUHU216DAVISVP2,2013-07-29 14:43:00,
2013-07-29 09:48:00,60.0,56.4,30.06,ENE,77,0.0,3.0,88,0.01,,,0.08,WUHU216DAVISVP2,2013-07-29 14:48:00,
2013-07-29 09:53:00,60.0,56.4,30.06,South,187,0.0,2.0,88,0.02,,,0.09,WUHU216DAVISVP2,2013-07-29 14:53:00,
2013-07-29 09:58:00,60.1,56.8,30.06,SSE,153,0.0,2.0,89,0.02,,,0.09,WUHU216DAVISVP2,2013-07-29 14:58:00,
2013-07-29 10:04:00,60.2,56.9,30.06,SE,139,2.0,2.0,89,0.02,,,0.09,WUHU216DAVISVP2,2013-07-29 15:04:00,
2013-07-29 10:09:00,60.2,56.9,30.06,ESE,113,0.0,3.0,89,0.02,,,0.09,WUHU216DAVISVP2,2013-07-29 15:09:00,
2013-07-29 10:14:00,60.4,57.1,30.06,SE,135,0.0,3.0,89,0.02,,,0.09,WUHU216DAVISVP2,2013-07-29 15:14:00,
2013-07-29 10:19:00,60.6,57.6,30.06,NE,56,0.0,3.0,90,0.02,,,0.09,WUHU216DAVISVP2,2013-07-29 15:19:00,
2013-07-29 10:24:00,60.7,57.4,30.07,SE,139,0.0,4.0,89,0.03,,,0.10,WUHU216DAVISVP2,2013-07-29 15:24:00,
2013-07-29 10:30:00,60.7,57.4,30.06,SSE,149,3.0,4.0,89,0.02,,,0.10,WUHU216DAVISVP2,2013-07-29 15:30:00,
2013-07-29 10:35:00,60.7,57.4,30.07,SE,136,1.0,3.0,89,0.03,,,0.11,WUHU216DAVISVP2,2013-07-29 15:35:00,
2013-07-29 10:40:00,60.8,57.8,30.06,SSE,152,0.0,3.0,90,0.03,,,0.11,WUHU216DAVISVP2,2013-07-29 15:40:00,
2013-07-29 10:45:00,60.9,57.6,30.06,South,187,4.0,4.0,89,0.03,,,0.11,WUHU216DAVISVP2,2013-07-29 15:45:00,
2013-07-29 10:50:00,60.9,57.6,30.06,SSE,159,6.0,6.0,89,0.02,,,0.11,WUHU216DAVISVP2,2013-07-29 15:50:00,
2013-07-29 10:55:00,60.9,57.3,30.06,ESE,106,3.0,8.0,88,0.02,,,0.11,WUHU216DAVISVP2,2013-07-29 15:55:00,
2013-07-29 11:00:00,61.0,57.7,30.06,ESE,115,0.0,8.0,89,0.02,,,0.11,WUHU216DAVISVP2,2013-07-29 16:00:00,
2013-07-29 11:06:00,61.2,57.6,30.06,ESE,102,0.0,7.0,88,0.02,,,0.11,WUHU216DAVISVP2,2013-07-29 16:06:00,
2013-07-29 11:11:00,61.3,57.7,30.07,East,96,3.0,7.0,88,0.03,,,0.12,WUHU216DAVISVP2,2013-07-29 16:11:00,
2013-07-29 11:16:00,61.5,57.6,30.07,ENE,73,3.0,6.0,87,0.03,,,0.12,WUHU216DAVISVP2,2013-07-29 16:16:00,
2013-07-29 11:21:00,61.7,58.1,30.06,SE,146,3.0,6.0,88,0.03,,,0.12,WUHU216DAVISVP2,2013-07-29 16:21:00,
2013-07-29 11:26:00,61.6,58.0,30.06,ESE,105,1.0,6.0,88,0.03,,,0.13,WUHU216DAVISVP2,2013-07-29 16:26:00,
2013-07-29 11:31:00,61.6,58.3,30.06,SSE,162,3.0,6.0,89,0.02,,,0.13,WUHU216DAVISVP2,2013-07-29 16:31:00,
2013-07-29 11:36:00,61.6,58.3,30.06,SSE,150,2.0,6.0,89,0.02,,,0.13,WUHU216DAVISVP2,2013-07-29 16:36:00,
2013-07-29 11:41:00,61.7,58.7,30.06,ESE,108,1.0,6.0,90,0.02,,,0.13,WUHU216DAVISVP2,2013-07-29 16:41:00,
2013-07-29 11:46:00,61.8,58.8,30.06,ESE,105,4.0,6.0,90,0.02,,,0.13,WUHU216DAVISVP2,2013-07-29 16:46:00,
2013-07-29 11:51:00,62.0,58.7,30.06,ESE,115,3.0,6.0,89,0.02,,,0.13,WUHU216DAVISVP2,2013-07-29 16:51:00,
2013-07-29 11:56:00,62.2,59.2,30.06,South,173,3.0,6.0,90,0.02,,,0.13,WUHU216DAVISVP2,2013-07-29 16:56:00,
2013-07-29 12:01:00,62.2,58.9,30.06,SSE,159,3.0,9.0,89,0.02,,,0.13,WUHU216DAVISVP2,2013-07-29 17:01:00,
2013-07-29 12:06:00,62.4,59.1,30.06,SE,136,5.0,10.0,89,0.02,,,0.13,WUHU216DAVISVP2,2013-07-29 17:06:00,
2013-07-29 12:11:00,62.6,59.3,30.06,ESE,108,6.0,10.0,89,0.01,,,0.13,WUHU216DAVISVP2,2013-07-29 17:11:00,
2013-07-29 12:17:00,63.0,60.0,30.05,SSW,205,5.0,10.0,90,0.01,,,0.13,WUHU216DAVISVP2,2013-07-29 17:17:00,
2013-07-29 12:22:00,63.2,59.9,30.05,SSE,147,4.0,10.0,89,0.01,,,0.13,WUHU216DAVISVP2,2013-07-29 17:22:00,
2013-07-29 12:27:00,63.3,60.0,30.05,SSE,147,4.0,10.0,89,0.00,,,0.13,WUHU216DAVISVP2,2013-07-29 17:27:00,
2013-07-29 12:32:00,63.4,60.1,30.05,South,180,5.0,10.0,89,0.00,,,0.13,WUHU216DAVISVP2,2013-07-29 17:32:00,
2013-07-29 12:37:00,63.7,60.7,30.06,SE,129,2.0,10.0,90,0.00,,,0.13,WUHU216DAVISVP2,2013-07-29 17:37:00,
2013-07-29 12:42:00,64.0,60.7,30.05,SSE,156,2.0,8.0,89,0.00,,,0.13,WUHU216DAVISVP2,2013-07-29 17:42:00,
2013-07-29 12:47:00,64.1,60.8,30.05,SE,136,5.0,9.0,89,0.00,,,0.13,WUHU216DAVISVP2,2013-07-29 17:47:00,
2013-07-29 12:52:00,64.2,60.9,30.05,ENE,72,1.0,11.0,89,0.00,,,0.13,WUHU216DAVISVP2,2013-07-29 17:52:00,
2013-07-29 12:57:00,64.5,60.9,30.05,SW,215,2.0,11.0,88,0.00,,,0.13,WUHU216DAVISVP2,2013-07-29 17:57:00,
2013-07-29 13:03:00,64.5,60.9,30.05,SE,142,3.0,11.0,88,0.00,,,0.13,WUHU216DAVISVP2,2013-07-29 18:03:00,
2013-07-29 13:08:00,64.5,60.9,30.05,SE,146,5.0,11.0,88,0.00,,,0.13,WUHU216DAVISVP2,2013-07-29 18:08:00,
2013-07-29 13:13:00,64.5,60.9,30.05,SE,134,9.0,10.0,88,0.00,,,0.13,WUHU216DAVISVP2,2013-07-29 18:13:00,
2013-07-29 13:18:00,64.3,60.7,30.05,SW,225,4.0,10.0,88,0.00,,,0.13,WUHU216DAVISVP2,2013-07-29 18:18:00,
2013-07-29 13:23:00,64.3,60.7,30.05,South,176,2.0,10.0,88,0.00,,,0.13,WUHU216DAVISVP2,2013-07-29 18:23:00,
2013-07-29 13:28:00,64.3,60.7,30.05,ESE,118,2.0,10.0,88,0.00,,,0.13,WUHU216DAVISVP2,2013-07-29 18:28:00,
2013-07-29 13:33:00,64.4,60.4,30.05,SE,144,8.0,11.0,87,0.00,,,0.13,WUHU216DAVISVP2,2013-07-29 18:33:00,
2013-07-29 13:38:00,64.4,60.4,30.05,SSW,201,3.0,11.0,87,0.00,,,0.13,WUHU216DAVISVP2,2013-07-29 18:38:00,
2013-07-29 13:43:00,64.6,60.6,30.05,SE,129,4.0,11.0,87,0.00,,,0.13,WUHU216DAVISVP2,2013-07-29 18:43:00,
2013-07-29 13:48:00,64.9,60.9,30.05,SSE,148,4.0,11.0,87,0.00,,,0.13,WUHU216DAVISVP2,2013-07-29 18:48:00,
2013-07-29 13:54:00,65.0,61.0,30.04,ESE,118,6.0,10.0,87,0.00,,,0.13,WUHU216DAVISVP2,2013-07-29 18:54:00,
2013-07-29 13:59:00,65.1,61.1,30.05,SSE,167,4.0,9.0,87,0.00,,,0.13,WUHU216DAVISVP2,2013-07-29 18:59:00,
2013-07-29 14:04:00,65.2,60.9,30.04,South,181,2.0,11.0,86,0.00,,,0.13,WUHU216DAVISVP2,2013-07-29 19:04:00,
2013-07-29 14:09:00,65.4,60.8,30.04,SSE,168,12.0,12.0,85,0.00,,,0.13,WUHU216DAVISVP2,2013-07-29 19:09:00,
2013-07-29 14:14:00,65.5,61.2,30.04,SE,143,2.0,13.0,86,0.00,,,0.13,WUHU216DAVISVP2,2013-07-29 19:14:00,
2013-07-29 14:19:00,65.6,61.3,30.04,NNE,13,1.0,13.0,86,0.00,,,0.13,WUHU216DAVISVP2,2013-07-29 19:19:00,
2013-07-29 14:24:00,65.7,61.1,30.04,SE,139,6.0,13.0,85,0.00,,,0.13,WUHU216DAVISVP2,2013-07-29 19:24:00,
2013-07-29 14:30:00,65.6,61.0,30.05,SE,127,3.0,9.0,85,0.00,,,0.13,WUHU216DAVISVP2,2013-07-29 19:30:00,
2013-07-29 14:35:00,65.6,61.0,30.04,SSE,150,3.0,9.0,85,0.00,,,0.13,WUHU216DAVISVP2,2013-07-29 19:35:00,
2013-07-29 14:40:00,65.6,61.0,30.04,South,183,9.0,9.0,85,0.00,,,0.13,WUHU216DAVISVP2,2013-07-29 19:40:00,
2013-07-29 14:45:00,65.7,61.1,30.04,ENE,65,1.0,9.0,85,0.00,,,0.13,WUHU216DAVISVP2,2013-07-29 19:45:00,
2013-07-29 14:50:00,65.6,61.0,30.04,ESE,115,5.0,10.0,85,0.00,,,0.13,WUHU216DAVISVP2,2013-07-29 19:50:00,
2013-07-29 14:55:00,65.6,61.0,30.04,SSE,167,7.0,11.0,85,0.00,,,0.13,WUHU216DAVISVP2,2013-07-29 19:55:00,
2013-07-29 15:00:00,65.6,61.0,30.04,ESE,121,5.0,11.0,85,0.00,,,0.13,WUHU216DAVISVP2,2013-07-29 20:00:00,
2013-07-29 15:06:00,65.8,61.2,30.04,SSE,166,1.0,11.0,85,0.00,,,0.13,WUHU216DAVISVP2,2013-07-29 20:06:00,
2013-07-29 15:11:00,65.9,61.3,30.03,SSE,149,6.0,11.0,85,0.00,,,0.13,WUHU216DAVISVP2,2013-07-29 20:11:00,
2013-07-29 15:16:00,66.1,61.5,30.03,SE,143,2.0,10.0,85,0.00,,,0.13,WUHU216DAVISVP2,2013-07-29 20:16:00,
2013-07-29 15:21:00,66.3,61.7,30.03,ENE,67,6.0,11.0,85,0.00,,,0.13,WUHU216DAVISVP2,2013-07-29 20:21:00,
2013-07-29 15:27:00,66.5,61.8,30.03,East,95,6.0,11.0,85,0.00,,,0.13,WUHU216DAVISVP2,2013-07-29 20:27:00,
2013-07-29 15:32:00,66.7,61.7,30.03,SSE,151,7.0,11.0,84,0.00,,,0.13,WUHU216DAVISVP2,2013-07-29 20:32:00,
2013-07-29 15:37:00,66.6,61.6,30.03,ESE,122,3.0,11.0,84,0.00,,,0.13,WUHU216DAVISVP2,2013-07-29 20:37:00,
2013-07-29 15:42:00,66.6,61.6,30.04,SE,146,5.0,11.0,84,0.00,,,0.13,WUHU216DAVISVP2,2013-07-29 20:42:00,
2013-07-29 15:48:00,66.6,62.0,30.04,NE,46,2.0,10.0,85,0.00,,,0.13,WUHU216DAVISVP2,2013-07-29 20:48:00,
2013-07-29 15:53:00,66.7,62.1,30.04,SE,134,4.0,10.0,85,0.00,,,0.13,WUHU216DAVISVP2,2013-07-29 20:53:00,
2013-07-29 15:58:00,66.8,62.2,30.04,SE,143,5.0,10.0,85,0.00,,,0.13,WUHU216DAVISVP2,2013-07-29 20:58:00,
2013-07-29 16:04:00,67.0,62.4,30.03,NE,39,4.0,7.0,85,0.00,,,0.13,WUHU216DAVISVP2,2013-07-29 21:04:00,
2013-07-29 16:09:00,67.0,62.4,30.04,SE,131,6.0,11.0,85,0.00,,,0.13,WUHU216DAVISVP2,2013-07-29 21:09:00,
2013-07-29 16:14:00,66.9,62.3,30.04,SW,219,4.0,11.0,85,0.00,,,0.13,WUHU216DAVISVP2,2013-07-29 21:14:00,
2013-07-29 16:19:00,66.8,62.2,30.04,SSE,162,1.0,11.0,85,0.00,,,0.13,WUHU216DAVISVP2,2013-07-29 21:19:00,
2013-07-29 16:24:00,66.9,62.3,30.04,SSE,162,3.0,11.0,85,0.00,,,0.13,WUHU216DAVISVP2,2013-07-29 21:24:00,
2013-07-29 16:30:00,66.7,62.4,30.03,ESE,112,4.0,10.0,86,0.00,,,0.13,WUHU216DAVISVP2,2013-07-29 21:30:00,
2013-07-29 16:35:00,66.7,62.4,30.03,South,187,3.0,9.0,86,0.00,,,0.13,WUHU216DAVISVP2,2013-07-29 21:35:00,
2013-07-29 16:41:00,66.8,62.5,30.03,SE,143,4.0,9.0,86,0.00,,,0.13,WUHU216DAVISVP2,2013-07-29 21:41:00,
2013-07-29 16:46:00,66.9,62.2,30.03,SSE,157,5.0,10.0,85,0.00,,,0.13,WUHU216DAVISVP2,2013-07-29 21:46:00,
2013-07-29 16:51:00,67.0,62.3,30.03,SW,232,5.0,10.0,85,0.00,,,0.13,WUHU216DAVISVP2,2013-07-29 21:51:00,
2013-07-29 16:56:00,67.1,62.4,30.03,SE,137,5.0,10.0,85,0.00,,,0.13,WUHU216DAVISVP2,2013-07-29 21:56:00,
2013-07-29 17:01:00,67.2,62.6,30.03,SE,129,2.0,10.0,85,0.00,,,0.13,WUHU216DAVISVP2,2013-07-29 22:01:00,
2013-07-29 17:06:00,67.2,62.2,30.02,NE,53,6.0,10.0,84,0.00,,,0.13,WUHU216DAVISVP2,2013-07-29 22:06:00,
2013-07-29 17:11:00,67.1,62.5,30.02,South,173,7.0,10.0,85,0.00,,,0.13,WUHU216DAVISVP2,2013-07-29 22:11:00,
2013-07-29 17:16:00,67.0,62.4,30.02,NE,56,2.0,11.0,85,0.00,,,0.13,WUHU216DAVISVP2,2013-07-29 22:16:00,
2013-07-29 17:21:00,67.0,62.4,30.02,SSE,148,3.0,11.0,85,0.00,,,0.13,WUHU216DAVISVP2,2013-07-29 22:21:00,
2013-07-29 17:26:00,66.9,62.3,30.02,SSE,164,5.0,11.0,85,0.00,,,0.13,WUHU216DAVISVP2,2013-07-29 22:26:00,
2013-07-29 17:32:00,66.9,62.3,30.03,South,179,3.0,11.0,85,0.00,,,0.13,WUHU216DAVISVP2,2013-07-29 22:32:00,
2013-07-29 17:37:00,67.1,62.5,30.03,SSE,156,3.0,9.0,85,0.00,,,0.13,WUHU216DAVISVP2,2013-07-29 22:37:00,
2013-07-29 17:42:00,67.1,62.1,30.03,SE,132,4.0,9.0,84,0.00,,,0.13,WUHU216DAVISVP2,2013-07-29 22:42:00,
2013-07-29 17:47:00,67.1,62.5,30.03,SSE,163,2.0,9.0,85,0.00,,,0.13,WUHU216DAVISVP2,2013-07-29 22:47:00,
2013-07-29 17:52:00,67.1,62.5,30.03,NE,55,2.0,9.0,85,0.00,,,0.13,WUHU216DAVISVP2,2013-07-29 22:52:00,
2013-07-29 17:57:00,67.1,62.5,30.02,ENE,75,3.0,9.0,85,0.00,,,0.13,WUHU216DAVISVP2,2013-07-29 22:57:00,
2013-07-29 18:03:00,66.9,62.3,30.02,SSE,153,6.0,10.0,85,0.00,,,0.13,WUHU216DAVISVP2,2013-07-29 23:03:00,
2013-07-29 18:08:00,66.9,62.3,30.02,South,181,4.0,10.0,85,0.00,,,0.13,WUHU216DAVISVP2,2013-07-29 23:08:00,
2013-07-29 18:13:00,66.8,62.5,30.02,South,187,7.0,11.0,86,0.00,,,0.13,WUHU216DAVISVP2,2013-07-29 23:13:00,
2013-07-29 18:18:00,66.8,62.5,30.02,ENE,77,3.0,11.0,86,0.00,,,0.13,WUHU216DAVISVP2,2013-07-29 23:18:00,
2013-07-29 18:23:00,66.9,62.6,30.02,ESE,110,4.0,11.0,86,0.00,,,0.13,WUHU216DAVISVP2,2013-07-29 23:23:00,
2013-07-29 18:28:00,67.0,62.7,30.02,SE,146,2.0,11.0,86,0.00,,,0.13,WUHU216DAVISVP2,2013-07-29 23:28:00,
2013-07-29 18:33:00,67.1,62.8,30.01,SE,143,3.0,8.0,86,0.00,,,0.13,WUHU216DAVISVP2,2013-07-29 23:33:00,
2013-07-29 18:38:00,67.1,62.8,30.01,South,174,4.0,9.0,86,0.00,,,0.13,WUHU216DAVISVP2,2013-07-29 23:38:00,
2013-07-29 18:44:00,67.0,62.7,30.01,SE,146,3.0,9.0,86,0.00,,,0.13,WUHU216DAVISVP2,2013-07-29 23:44:00,
2013-07-29 18:49:00,67.0,62.7,30.00,SSE,166,2.0,9.0,86,0.00,,,0.13,WUHU216DAVISVP2,2013-07-29 23:49:00,
2013-07-29 18:54:00,67.0,62.7,30.00,East,80,4.0,9.0,86,0.00,,,0.13,WUHU216DAVISVP2,2013-07-29 23:54:00,
2013-07-29 18:59:00,67.0,62.7,30.00,SE,139,0.0,8.0,86,0.00,,,0.13,WUHU216DAVISVP2,2013-07-29 23:59:00,
2013-07-29 19:04:00,67.1,62.8,30.01,ESE,115,0.0,8.0,86,0.00,,,0.13,WUHU216DAVISVP2,2013-07-30 00:04:00,
2013-07-29 19:09:00,67.1,62.8,30.01,SE,143,0.0,8.0,86,0.00,,,0.13,WUHU216DAVISVP2,2013-07-30 00:09:00,
2013-07-29 19:14:00,67.1,62.5,30.01,East,85,3.0,8.0,85,0.00,,,0.13,WUHU216DAVISVP2,2013-07-30 00:14:00,
2013-07-29 19:19:00,67.1,62.5,30.01,NNE,21,0.0,7.0,85,0.00,,,0.13,WUHU216DAVISVP2,2013-07-30 00:19:00,
2013-07-29 19:24:00,67.0,62.4,30.01,SSW,194,2.0,7.0,85,0.00,,,0.13,WUHU216DAVISVP2,2013-07-30 00:24:00,
2013-07-29 19:30:00,67.0,62.7,30.01,SSE,166,4.0,7.0,86,0.00,,,0.13,WUHU216DAVISVP2,2013-07-30 00:30:00,
2013-07-29 19:35:00,67.0,62.7,30.01,ENE,78,4.0,7.0,86,0.00,,,0.13,WUHU216DAVISVP2,2013-07-30 00:35:00,
2013-07-29 19:40:00,66.9,62.6,30.01,East,101,3.0,11.0,86,0.00,,,0.13,WUHU216DAVISVP2,2013-07-30 00:40:00,
2013-07-29 19:45:00,66.8,62.5,30.01,South,172,5.0,11.0,86,0.00,,,0.13,WUHU216DAVISVP2,2013-07-30 00:45:00,
2013-07-29 19:50:00,66.7,62.7,30.01,SSE,153,3.0,11.0,87,0.00,,,0.13,WUHU216DAVISVP2,2013-07-30 00:50:00,
2013-07-29 19:55:00,66.6,62.6,30.01,East,87,1.0,11.0,87,0.00,,,0.13,WUHU216DAVISVP2,2013-07-30 00:55:00,
2013-07-29 20:00:00,66.6,62.6,30.01,SE,136,1.0,8.0,87,0.00,,,0.13,WUHU216DAVISVP2,2013-07-30 01:00:00,
2013-07-29 20:05:00,66.5,62.8,30.00,ESE,121,1.0,8.0,88,0.00,,,0.13,WUHU216DAVISVP2,2013-07-30 01:05:00,
2013-07-29 20:11:00,66.4,62.7,30.00,East,82,8.0,8.0,88,0.00,,,0.13,WUHU216DAVISVP2,2013-07-30 01:11:00,
2013-07-29 20:16:00,66.3,62.6,30.01,ESE,103,3.0,9.0,88,0.00,,,0.13,WUHU216DAVISVP2,2013-07-30 01:16:00,
2013-07-29 20:21:00,66.2,62.5,30.02,SSE,156,2.0,9.0,88,0.00,,,0.13,WUHU216DAVISVP2,2013-07-30 01:21:00,
2013-07-29 20:27:00,66.1,62.7,30.02,West,260,1.0,9.0,89,0.00,,,0.13,WUHU216DAVISVP2,2013-07-30 01:27:00,
2013-07-29 20:32:00,65.9,62.6,30.02,East,97,2.0,9.0,89,0.00,,,0.13,WUHU216DAVISVP2,2013-07-30 01:32:00,
2013-07-29 20:37:00,65.8,62.5,30.02,SSE,166,4.0,9.0,89,0.00,,,0.13,WUHU216DAVISVP2,2013-07-30 01:37:00,
2013-07-29 20:42:00,65.6,62.6,30.02,SE,136,4.0,9.0,90,0.00,,,0.13,WUHU216DAVISVP2,2013-07-30 01:42:00,
2013-07-29 20:47:00,65.6,62.9,30.02,SE,132,0.0,8.0,91,0.00,,,0.13,WUHU216DAVISVP2,2013-07-30 01:47:00,
2013-07-29 20:52:00,65.5,62.8,30.03,SE,134,2.0,8.0,91,0.00,,,0.13,WUHU216DAVISVP2,2013-07-30 01:52:00,
2013-07-29 20:57:00,65.2,62.8,30.02,SSE,153,1.0,8.0,92,0.00,,,0.13,WUHU216DAVISVP2,2013-07-30 01:57:00,
2013-07-29 21:02:00,65.1,62.7,30.02,SSE,154,1.0,7.0,92,0.00,,,0.13,WUHU216DAVISVP2,2013-07-30 02:02:00,
2013-07-29 21:07:00,65.0,62.6,30.03,SSE,162,4.0,7.0,92,0.00,,,0.13,WUHU216DAVISVP2,2013-07-30 02:07:00,
2013-07-29 21:13:00,65.0,62.9,30.03,SSE,166,1.0,6.0,93,0.00,,,0.13,WUHU216DAVISVP2,2013-07-30 02:13:00,
2013-07-29 21:18:00,65.0,62.9,30.03,SE,128,0.0,6.0,93,0.00,,,0.13,WUHU216DAVISVP2,2013-07-30 02:18:00,
2013-07-29 21:23:00,65.0,62.9,30.03,South,184,0.0,4.0,93,0.00,,,0.13,WUHU216DAVISVP2,2013-07-30 02:23:00,
2013-07-29 21:28:00,64.9,62.8,30.03,SSW,199,3.0,4.0,93,0.00,,,0.13,WUHU216DAVISVP2,2013-07-30 02:28:00,
2013-07-29 21:33:00,64.9,62.8,30.04,SE,128,0.0,5.0,93,0.00,,,0.13,WUHU216DAVISVP2,2013-07-30 02:33:00,
2013-07-29 21:39:00,64.9,62.8,30.04,SSE,147,1.0,5.0,93,0.00,,,0.13,WUHU216DAVISVP2,2013-07-30 02:39:00,
2013-07-29 21:44:00,64.9,62.8,30.04,SE,127,1.0,5.0,93,0.00,,,0.13,WUHU216DAVISVP2,2013-07-30 02:44:00,
2013-07-29 21:49:00,65.0,62.9,30.04,NE,37,1.0,5.0,93,0.00,,,0.13,WUHU216DAVISVP2,2013-07-30 02:49:00,
2013-07-29 21:54:00,65.0,62.9,30.05,East,85,1.0,7.0,93,0.00,,,0.13,WUHU216DAVISVP2,2013-07-30 02:54:00,
2013-07-29 21:59:00,65.0,62.9,30.04,SE,125,1.0,7.0,93,0.00,,,0.13,WUHU216DAVISVP2,2013-07-30 02:59:00,
2013-07-29 22:04:00,65.1,63.0,30.05,East,82,1.0,6.0,93,0.00,,,0.13,WUHU216DAVISVP2,2013-07-30 03:04:00,
2013-07-29 22:09:00,65.0,62.9,30.05,SE,141,1.0,6.0,93,0.00,,,0.13,WUHU216DAVISVP2,2013-07-30 03:09:00,
2013-07-29 22:14:00,65.1,63.0,30.05,SE,136,1.0,4.0,93,0.00,,,0.13,WUHU216DAVISVP2,2013-07-30 03:14:00,
2013-07-29 22:19:00,65.1,63.0,30.05,ESE,115,5.0,6.0,93,0.00,,,0.13,WUHU216DAVISVP2,2013-07-30 03:19:00,
2013-07-29 22:25:00,65.1,63.0,30.05,South,190,1.0,7.0,93,0.00,,,0.13,WUHU216DAVISVP2,2013-07-30 03:25:00,
2013-07-29 22:30:00,65.1,63.0,30.05,SE,134,2.0,7.0,93,0.00,,,0.13,WUHU216DAVISVP2,2013-07-30 03:30:00,
2013-07-29 22:35:00,65.1,63.0,30.05,ESE,115,0.0,9.0,93,0.00,,,0.13,WUHU216DAVISVP2,2013-07-30 03:35:00,
2013-07-29 22:40:00,65.1,63.0,30.05,SE,125,1.0,9.0,93,0.00,,,0.13,WUHU216DAVISVP2,2013-07-30 03:40:00,
2013-07-29 22:45:00,65.2,63.1,30.05,SE,129,0.0,8.0,93,0.00,,,0.13,WUHU216DAVISVP2,2013-07-30 03:45:00,
2013-07-29 22:50:00,65.2,63.1,30.05,East,97,1.0,8.0,93,0.00,,,0.13,WUHU216DAVISVP2,2013-07-30 03:50:00,
2013-07-29 22:55:00,65.2,63.1,30.05,ESE,105,0.0,5.0,93,0.00,,,0.13,WUHU216DAVISVP2,2013-07-30 03:55:00,
2013-07-29 23:01:00,65.3,63.2,30.04,East,95,2.0,5.0,93,0.00,,,0.13,WUHU216DAVISVP2,2013-07-30 04:01:00,
2013-07-29 23:02:00,65.2,63.1,30.04,SE,146,0.0,5.0,93,0.00,,,0.13,WUHU216DAVISVP2,2013-07-30 04:02:00,
2013-07-29 23:07:00,65.2,63.1,30.04,East,79,0.0,4.0,93,0.00,,,0.13,WUHU216DAVISVP2,2013-07-30 04:07:00,
2013-07-29 23:12:00,65.2,63.1,30.04,SSW,212,0.0,4.0,93,0.00,,,0.13,WUHU216DAVISVP2,2013-07-30 04:12:00,
2013-07-29 23:17:00,65.2,63.1,30.04,ESE,118,0.0,4.0,93,0.00,,,0.13,WUHU216DAVISVP2,2013-07-30 04:17:00,
2013-07-29 23:22:00,65.2,63.1,30.03,SE,139,2.0,4.0,93,0.00,,,0.13,WUHU216DAVISVP2,2013-07-30 04:22:00,
2013-07-29 23:27:00,65.1,63.3,30.04,SSE,165,1.0,3.0,94,0.01,,,0.14,WUHU216DAVISVP2,2013-07-30 04:27:00,
2013-07-29 23:32:00,65.1,63.3,30.04,SE,129,1.0,3.0,94,0.01,,,0.14,WUHU216DAVISVP2,2013-07-30 04:32:00,
2013-07-29 23:37:00,65.0,63.2,30.04,ESE,105,1.0,4.0,94,0.01,,,0.14,WUHU216DAVISVP2,2013-07-30 04:37:00,
2013-07-29 23:42:00,65.0,63.2,30.04,SSE,156,0.0,4.0,94,0.01,,,0.14,WUHU216DAVISVP2,2013-07-30 04:42:00,
2013-07-29 23:47:00,65.1,63.3,30.05,NE,34,2.0,4.0,94,0.01,,,0.14,WUHU216DAVISVP2,2013-07-30 04:47:00,
2013-07-29 23:52:00,65.1,63.3,30.05,SSE,148,1.0,4.0,94,0.01,,,0.14,WUHU216DAVISVP2,2013-07-30 04:52:00,
2013-07-29 23:57:00,65.2,63.4,30.05,SSE,147,0.0,4.0,94,0.01,,,0.14,WUHU216DAVISVP2,2013-07-30 04:57:00,